This is the latest recevied weather packets stored in our database for station/object KE8ZLU. If no packets are shown the sender has not sent any weather packets the latest 10 day(s).
| Time | Temp. | Humidity | Pressure | Rain* | Wind** | Luminosity | Snow |
|---|---|---|---|---|---|---|---|
| 1778094647 | 10.56° C | 47% | 1014.2 hPa | 0 mm | - | 175 W/m² | - |
| 1778094345 | 10.56° C | 45% | 1014.4 hPa | 0 mm | - | 207 W/m² | - |
| 1778094042 | 10° C | 48% | 1014.3 hPa | 0 mm | - | 230 W/m² | - |
| 1778093739 | 10.56° C | 48% | 1014.2 hPa | 0 mm | - | 227 W/m² | - |
| 1778093435 | 11.11° C | 47% | 1014.2 hPa | 0 mm | - | 250 W/m² | - |
| 1778093133 | 10.56° C | 46% | 1014.4 hPa | 0 mm | - | 931 W/m² | - |
| 1778092830 | 10.56° C | 50% | 1014.4 hPa | 0 mm | - | 251 W/m² | - |
| 1778092526 | 10.56° C | 50% | 1014.4 hPa | 0 mm | - | 230 W/m² | - |
| 1778092223 | 10.56° C | 47% | 1014.3 hPa | 0 mm | - | 434 W/m² | - |
| 1778091920 | 10.56° C | 47% | 1014.4 hPa | 0 mm | - | 367 W/m² | - |
| 1778091617 | 10° C | 48% | 1014.3 hPa | 0 mm | - | 225 W/m² | - |
| 1778091315 | 11.11° C | 47% | 1014.2 hPa | 0 mm | - | 193 W/m² | - |
| 1778091012 | 10.56° C | 47% | 1014.1 hPa | 0 mm | - | 419 W/m² | - |
| 1778090708 | 10.56° C | 47% | 1014.2 hPa | 0 mm | - | 474 W/m² | - |
| 1778090405 | 10° C | 51% | 1014.3 hPa | 0 mm | - | 858 W/m² | - |
| 1778090101 | 10° C | 49% | 1014.3 hPa | 0 mm | - | 188 W/m² | - |
| 1778089797 | 10° C | 50% | 1014.4 hPa | 0 mm | - | 209 W/m² | - |
| 1778089496 | 9.44° C | 47% | 1014.3 hPa | 0 mm | - | 242 W/m² | - |
| 1778089192 | 10° C | 49% | 1014.5 hPa | 0 mm | - | 307 W/m² | - |
| 1778088890 | 10° C | 47% | 1014.4 hPa | 0 mm | - | 334 W/m² | - |
| 1778088586 | 10° C | 46% | 1014.6 hPa | 0 mm | - | 255 W/m² | - |
| 1778088284 | 10° C | 48% | 1014.7 hPa | 0 mm | - | 513 W/m² | - |
| 1778087980 | 10° C | 48% | 1014.8 hPa | 0 mm | - | 561 W/m² | - |
| 1778087677 | 10° C | 47% | 1015.1 hPa | 0 mm | - | 306 W/m² | - |
| 1778087375 | 10° C | 48% | 1014.9 hPa | 0 mm | - | 302 W/m² | - |
* Rain latest hour (hover to see other rain measurements)
** Current wind speed in m/s (hover to see current wind gust speed)